Location: Volkssternwarte_EN
(51.3230°N, 7.4010°E)
Time: 06:52:32
(UTC+01:00)

BlueWalker 3 - Pass Details

Date: 09 December 2022
Orbit: 499 x 517 km, 53.2° (Epoch: 28 January)

Event Time Altitude Azimuth Distance (km) Brightness Sun altitude
Rises 19:42:17 0° 284° (WNW) 2,625 6.7 -29.9°
Reaches altitude 10° 19:45:22 10° 259° (WSW) 1,728 5.5 -30.4°
Maximum altitude 19:47:24 14° 227° (SW) 1,495 4.8 -30.7°
Enters shadow 19:47:33 14° 224° (SW) 1,495 4.8 -30.8°
